User: anonymous   Login
Location: Newark
(49.8969°N, 3.3422°E)
Time: 05:23:39
(UTC+00:00)
Language:

Tiros 1 - Orbit

View from above orbital plane
View from above orbital plane
View from above satellite
View from above satellite

Ground track
Ground track

The orbit data is extracted from the following two-line orbital elements,

1 00029U 60002B   21208.45806057 -.00000106  00000-0  15229-4 0  9998
2 00029  48.3780 197.1581 0023803 166.8798 193.2738 14.74441597278305
Epoch (UTC): 27 July 2021 10:59:36
Eccentricity: 0.0023803
inclination: 48.3780°
perigee height: 630 km
apogee height: 663 km
right ascension of ascending node: 197.1581°
argument of perigee: 166.8798°
revolutions per day: 14.74441597
mean anomaly at epoch: 193.2738°
orbit number at epoch: 27830

The dashed part of the orbit path shows where the satellite is in the earth's shadow,  

DLR